This is the latest recevied weather packets stored in our database for station/object W0AKO. If no packets are shown the sender has not sent any weather packets the latest 1 day(s).
| Time | Temp. | Humidity | Pressure | Rain* | Wind** | Luminosity | Snow |
|---|---|---|---|---|---|---|---|
| 1836274832 | 23.89° C | 10% | 1017.8 hPa | 0 mm | 2.68 m/s, 137° | 0 W/m² | - |
| 1836274530 | 23.89° C | 10% | 1017.8 hPa | 0 mm | 4.02 m/s, 160° | 0 W/m² | - |
| 1836274383 | 23.89° C | 10% | 1017.8 hPa | 0 mm | 2.24 m/s, 147° | 0 W/m² | - |
| 1836274229 | 23.89° C | 10% | 1017.9 hPa | 0 mm | 2.68 m/s, 116° | 0 W/m² | - |
| 1836273928 | 23.89° C | 10% | 1017.9 hPa | 0 mm | 1.34 m/s, 120° | 0 W/m² | - |
| 1778047211 | 19.44° C | 10% | 1013.5 hPa | 0 mm | 1.34 m/s, 265° | 0 W/m² | - |
| 1778046908 | 19.44° C | 10% | 1013.5 hPa | 0 mm | 0.45 m/s, 233° | 0 W/m² | - |
| 1778046605 | 20° C | 10% | 1013.4 hPa | 0 mm | 1.34 m/s, 219° | 0 W/m² | - |
| 1778046302 | 19.44° C | 10% | 1013.4 hPa | 0 mm | 1.34 m/s, 265° | 0 W/m² | - |
| 1778045997 | 19.44° C | 10% | 1013.3 hPa | 0 mm | 1.34 m/s, 225° | 0 W/m² | - |
| 1778045696 | 19.44° C | 10% | 1013.2 hPa | 0 mm | 1.34 m/s, 256° | 0 W/m² | - |
| 1778045394 | 19.44° C | 10% | 1013.2 hPa | 0 mm | 0.89 m/s, 233° | 0 W/m² | - |
| 1778045093 | 19.44° C | 10% | 1013.1 hPa | 0 mm | 1.79 m/s, 233° | 0 W/m² | - |
| 1778044789 | 19.44° C | 10% | 1013.1 hPa | 0 mm | 0 m/s | 0 W/m² | - |
| 1778044486 | 19.44° C | 10% | 1013 hPa | 0 mm | 0 m/s | 0 W/m² | - |
| 1778044183 | 19.44° C | 10% | 1013 hPa | 0 mm | 0 m/s | 0 W/m² | - |
| 1778043881 | 19.44° C | 10% | 1013 hPa | 0 mm | 0 m/s | 0 W/m² | - |
| 1778043578 | 18.89° C | 10% | 1012.8 hPa | 0 mm | 0 m/s | 0 W/m² | - |
| 1778043274 | 18.89° C | 10% | 1013 hPa | 0 mm | 0 m/s | 0 W/m² | - |
| 1778042971 | 18.89° C | 10% | 1012.6 hPa | 0 mm | 0 m/s | 0 W/m² | - |
| 1778042670 | 18.89° C | 10% | 1012.8 hPa | 0 mm | 0.45 m/s, 210° | 0 W/m² | - |
| 1778042366 | 18.89° C | 10% | 1012.7 hPa | 0 mm | 0.89 m/s, 194° | 0 W/m² | - |
| 1778042063 | 18.89° C | 10% | 1012.6 hPa | 0 mm | 0.45 m/s, 187° | 0 W/m² | - |
| 1778041761 | 19.44° C | 10% | 1012.6 hPa | 0 mm | 0.45 m/s, 201° | 0 W/m² | - |
| 1778041460 | 19.44° C | 10% | 1012.5 hPa | 0 mm | 0 m/s | 0 W/m² | - |
* Rain latest hour (hover to see other rain measurements)
** Current wind speed in m/s (hover to see current wind gust speed)